Location: Unspecified
(0.0000°N, 0.0000°E)
Time: 11:14:11
(UTC+00:00)

PCSat - Pass Details

Date: 14 December 2017
Orbit: 786 x 794 km, 67.1° (Epoch: 19 January)

Event Time Altitude Azimuth Distance (km) Brightness Sun altitude
Rises 04:12:23 0° 18° (NNE) 3,275 12.7 -23.4°
Reaches altitude 10° 04:16:30 10° 48° (NE) 2,349 12.3 -22.4°
Maximum altitude 04:18:29 12° 70° (ENE) 2,213 12.4 -22.0°
Drops below altitude 10° 04:20:27 10° 92° (E) 2,352 13.0 -21.5°
Sets 04:24:33 0° 122° (ESE) 3,283 14.3 -20.6°
